Pagrindinis puslapis
METAR-TAF:

METAR-TAF

Oro uostai :

Fort Hood-Kilinas, Teksasas, Jungtinės Amerikos Valstijos

platuma: 31-06N, ilguma: 097-20W, Aukštis: 283 m

Dabartinis oras

Ataskaita buvo paskelbta 23 minutes, ne 02:58 UTC
Vėjas 8 kt iš Pietų
Temperatūra 22°C
Drėgmė 78%
Slėgis 1013 hPa
Matomumas: 16.1 km
Giedras dangus

METAR: KHLR 170258Z AUTO 18008KT 10SM CLR 22/18 A2990 RMK AO2 SLP116 T02160182 53001

Laikas: 21:21 (03:21 UTC)


TAF: trūkstamas

Orai ataskaitas ir orų prognozės (METAR, TAF).

turimą stotys yra geltonos ir raudonos taškus žemėlapyje.

Perkelti pele per norėdami pamatyti stoties vardą.

Tada spustelėkite, norėdami matyti oro stebėjimo ir prognozės.

Norėdami pakeisti žemėlapį: spustelėkite ant žalios mygtukų su juodo kryžiaus žemyn,; žalią mygtuką su brūkšneliu, jei norite nutolinti; arba žalių rodyklių gretimoms žemėlapius.


METAR-TAF: